Location: ??????????
(44.2167°N, 135.5333°E)
Time: 15:22:15
(UTC+00:00)

UNK - Pass Details

Date: 15 June 2025
Orbit: 656 x 673 km, 98.4° (Epoch: 15 July)

Event Time Altitude Azimuth Distance (km) Brightness Sun altitude
Rises 18:33:43 0° 159° (SSE) 2,977 6.8 -6.5°
Reaches altitude 10° 18:35:56 10° 157° (SSE) 2,068 6.1 -6.2°
Maximum altitude 18:40:25 72° 75° (ENE) 696 4.1 -5.5°
Drops below altitude 10° 18:44:56 10° 351° (N) 2,078 6.7 -4.9°
Sets 18:47:10 0° 349° (N) 2,993 7.5 -4.6°
